Flag for Netherlands Weather past 2 weeks in Rotterdam, Netherlands

Now
57 °F

Cool.


Feels Like: 57 °F
Forecast: 56 / 67 °F
Wind: 2 mph from Southwest

Location: Rotterdam Zestienhoven Airport

Current Time: Sep 30, 2014 at 9:38:44 PM

Latest Report: Sep 30, 2014 at 8:55 PM


Visibility: 4 mi

Pressure: 30.24 "Hg

Humidity: 94%

Dew point: 55 °F

Location of RotterdamLocation

Historic Weather in Rotterdam — Graph

°F

Rotterdam temperature yesterday

Maximum temperature yesterday: 66 °F (at 12:25 PM)
Minimum temperature yesterday: 54 °F (at 2:25 AM)
Average temperature yesterday: 61 °F

Past Weeks' High & Low Weather Summary

 TemperatureHumidityPressure
High79 °F (Sep 18, 1:55 PM)100% (Sep 15, 10:55 PM)30.36 "Hg (Sep 15, 10:55 PM)
Low46 °F (Sep 23, 12:25 AM)51% (Sep 17, 2:55 PM)29.80 "Hg (Sep 18, 6:25 AM)
Average61 °F84%30.05 "Hg
* Reported Sep 15 8:25 PM — Sep 30 8:25 PM, Rotterdam, Weather by CustomWeather, © 2014

Note: Actual official high and low records may vary slightly from our data, if they occured in-between our weather recording intervals... More about our weather records

Advertising

Rotterdam weather history for previous 24 hours

 ConditionsComfort  
Time TempWeatherWind HumidityBarometerVisibility
8:25 PM
Sep 30
57 °FCool.2 mph94%30.27 "HgN/A
7:55 PM61 °FCool.3 mph88%30.24 "HgN/A
7:25 PM61 °FCool.5 mph83%30.24 "HgN/A
6:55 PM63 °FMild.6 mph83%30.24 "HgN/A
6:25 PM64 °FMild.7 mph78%30.24 "HgN/A
5:55 PM66 °FMild.7 mph73%30.24 "HgN/A
5:25 PM66 °FMild.8 mph78%30.24 "HgN/A
4:55 PM66 °FPartly sunny.10 mph73%30.24 "HgN/A
4:25 PM66 °FMostly cloudy.10 mph78%30.24 "HgN/A
3:55 PM64 °FBroken clouds.9 mph78%30.24 "HgN/A
3:25 PM66 °FScattered clouds.8 mph73%30.24 "HgN/A
2:55 PM64 °FMore clouds than sun.12 mph78%30.24 "HgN/A
2:25 PM64 °FMostly cloudy.10 mph78%30.24 "HgN/A
1:55 PM64 °FMostly cloudy.10 mph78%30.24 "HgN/A
1:25 PM64 °FOvercast.13 mph78%30.24 "HgN/A
12:55 PM66 °FPartly sunny.13 mph73%30.24 "HgN/A
12:25 PM66 °FMore clouds than sun.12 mph78%30.24 "HgN/A
11:55 AM64 °FCloudy.12 mph88%30.24 "Hg5 mi
11:25 AM64 °FBroken clouds.10 mph88%30.24 "Hg4 mi
10:55 AM63 °FPartly sunny.12 mph88%30.21 "Hg4 mi
10:25 AM64 °FBroken clouds.10 mph83%30.21 "Hg4 mi
9:55 AM63 °FFog.7 mph88%30.21 "Hg3 mi
9:25 AM63 °FFog.9 mph88%30.21 "Hg3 mi
8:55 AM61 °FFog.8 mph94%30.18 "Hg3 mi
8:25 AM59 °FFog.9 mph94%30.18 "Hg3 mi
7:55 AM59 °FFog.8 mph94%30.18 "Hg2 mi
7:25 AM61 °FFog.9 mph94%30.18 "Hg2 mi
6:55 AM61 °FFog.9 mph94%30.18 "Hg2 mi
6:25 AM59 °FFog.7 mph94%30.18 "Hg2 mi
5:55 AM61 °FFog.8 mph94%30.18 "Hg2 mi
5:25 AM61 °FFog.8 mph94%30.15 "Hg2 mi
4:55 AM61 °FFog.7 mph94%30.15 "Hg2 mi
4:25 AM61 °FFog.7 mph94%30.15 "Hg2 mi
3:55 AM61 °FFog.9 mph94%30.15 "Hg3 mi
3:25 AM63 °FFog.9 mph88%30.15 "Hg3 mi
2:55 AM63 °FFog.9 mph88%30.15 "Hg3 mi
2:25 AM63 °FFog.8 mph94%30.15 "Hg3 mi
1:55 AM63 °FFog.7 mph94%30.15 "Hg2 mi
1:25 AM63 °FFog.7 mph94%30.15 "Hg2 mi
12:55 AM63 °FFog.7 mph94%30.15 "Hg2 mi
12:25 AM63 °FPartly cloudy.6 mph94%30.15 "Hg2 mi
11:55 PM
Sep 29
63 °FPassing clouds.7 mph94%30.15 "Hg2 mi
11:25 PM63 °FFog.6 mph94%30.15 "Hg2 mi
10:55 PM63 °FFog.7 mph94%30.15 "Hg2 mi
10:25 PM63 °FFog.7 mph94%30.15 "Hg2 mi
9:55 PM61 °FFog.7 mph100%30.15 "Hg2 mi
9:25 PM63 °FFog.9 mph94%30.15 "Hg2 mi
Weather by CustomWeather, © 2014

See weather overviewHow to use our weather pages